星链-34944 (STARLINK-34944)

导读

STARLINK-34944是美国SpaceX公司星链星座的卫星,于2025年8月14日发射升空,归属美国所有。该卫星属于星链项目,旨在为全球提供低延迟、高速率的卫星互联网覆盖服务,是SpaceX推进近地轨道巨型卫星星座组网进程中的一员,助力构建全球卫星通信网络。

Basic Information
目录编号:
65182
目录名称:
STARLINK-34944
国际标识:
2025-175J
轨道中心:
EARTH
卫星名称:
星链-34944
卫星全名:
星链-34944 (STARLINK-34944)
卫星状态:
在轨 (已飞行386 天)
发射日期:
2025-08-14 UTC
国别 :
美国 (US)
星等 :
--
Orbit Information
数据来源 国际轨道数据
星历时间: 2026-09-03T11:25:25+0800
1天前
查看轨道信息
半长轴: 6843.663km
偏心率: 0.0001286
轨道倾角: 97.286°
近地点辐角 77.575°
升交点赤经 115.383°
平近点角 282.564°
近地点: 464.645km
远地点: 466.407km
周期: 93.906分钟
每日圈数: 15.33451
Detailed Information
固有亮度:
5
最大亮度:
2.5
卫星平台:
Starlink V1.0
覆盖范围:
全球
运营商:
太空探索技术公司
运营商所在国:
美国
制造商(研发单位):
太空探索技术公司
制造商所在国:
美国
使用方式:
暂无
Satellite Introduction
Starlink 计划是 SpaceX 推出的全球卫星互联网项目,通过发射低轨道卫星,为全球尤其是偏远地区提供高速、低延迟的互联网服务。自 2019 年起,Starlink 已部署数千颗卫星,旨在缩小全球数字鸿沟,推动互联网普及。该项目还为军事、航空等行业提供通信支持,带来广泛经济效益。
2D Orbit Map
3D Orbit Map
Orbit Altitude Analysis Chart
Orbit Inclination Analysis Chart
Orbit Comprehensive Analysis Chart
View Comprehensive Chart
Conjunction Data List
Event ID Objects TCA Miss Dist (km) Collision Risk Probability Collision Risk Index (CRI) Action
CDM_260905-001305-248806-518221
2026-09-05T
00:13:05+0000
2.652 km
极远距离
1.560726E-6 低风险 0.39
CDM_260905-130905-721706-518221
2026-09-05T
13:09:37+0000
2.803 km
极远距离
1.471827E-6 低风险 0.38
CDM_260901-113705-283406-518224
2026-09-01T
11:37:38+0000
2.854 km
极远距离
1.409024E-6 低风险 0.38